Location: Unspecified
(64.9000°N, 0.0000°E)
Time: 22:39:00
(UTC+00:00)

A-11 Canister half - Pass Details

Date: 22 June 2019
Orbit: 1527 x 1682 km, 47.3° (Epoch: 13 October)

Event Time Altitude Azimuth Distance (km) Brightness Sun altitude
Rises 08:57:45 0° 259° (W) 4,694 11.2 39.1°
Reaches altitude 10° 09:01:36 10° 246° (WSW) 3,702 10.8 39.4°
Maximum altitude 09:08:16 23° 200° (SSW) 2,825 10.8 40.0°
Drops below altitude 10° 09:14:56 10° 153° (SSE) 3,708 12.0 40.6°
Sets 09:18:48 0° 140° (SE) 4,703 12.4 40.9°
